Year,Month,Day,Hour,Minute,Value (Times are PST for temperature in C)
2018,06,16,00,00,15.20
2018,06,16,00,01,15.20
2018,06,16,00,02,15.20
2018,06,16,00,03,15.20
2018,06,16,00,04,15.20
2018,06,16,00,05,15.10
2018,06,16,00,06,15.10
2018,06,16,00,07,15.10
2018,06,16,00,08,15.10
2018,06,16,00,09,15.10
2018,06,16,00,10,15.00
2018,06,16,00,11,15.00
2018,06,16,00,12,15.00
2018,06,16,00,13,15.00
2018,06,16,00,14,14.90
2018,06,16,00,15,14.90
2018,06,16,00,16,14.90
2018,06,16,00,17,14.90
2018,06,16,00,18,14.80
2018,06,16,00,19,14.80
2018,06,16,00,20,14.80
2018,06,16,00,21,14.80
2018,06,16,00,22,14.80
2018,06,16,00,23,14.80
2018,06,16,00,24,14.70
2018,06,16,00,25,14.70
2018,06,16,00,26,14.60
2018,06,16,00,27,14.60
2018,06,16,00,28,14.50
2018,06,16,00,29,14.50
2018,06,16,00,30,14.40
2018,06,16,00,31,14.30
2018,06,16,00,32,14.30
2018,06,16,00,33,14.30
2018,06,16,00,34,14.20
2018,06,16,00,35,14.10
2018,06,16,00,36,14.10
2018,06,16,00,37,14.00
2018,06,16,00,38,14.00
2018,06,16,00,39,14.00
2018,06,16,00,40,13.90
2018,06,16,00,41,13.90
2018,06,16,00,42,13.90
2018,06,16,00,43,13.90
2018,06,16,00,44,13.80
2018,06,16,00,45,13.80
2018,06,16,00,46,13.80
2018,06,16,00,47,13.80
2018,06,16,00,48,13.80
2018,06,16,00,49,13.70
2018,06,16,00,50,13.70
2018,06,16,00,51,13.70
2018,06,16,00,52,13.70
2018,06,16,00,53,13.70
2018,06,16,00,54,13.70
2018,06,16,00,55,13.70
2018,06,16,00,56,13.60
2018,06,16,00,57,13.60
2018,06,16,00,58,13.60
2018,06,16,00,59,13.60
2018,06,16,01,00,13.60
2018,06,16,01,01,13.50
2018,06,16,01,02,13.50
2018,06,16,01,03,13.40
2018,06,16,01,04,13.40
2018,06,16,01,05,13.30
2018,06,16,01,06,13.30
2018,06,16,01,07,13.30
2018,06,16,01,08,13.30
2018,06,16,01,09,13.30
2018,06,16,01,10,13.30
2018,06,16,01,11,13.30
2018,06,16,01,12,13.30
2018,06,16,01,13,13.20
2018,06,16,01,14,13.20
2018,06,16,01,15,13.20
2018,06,16,01,16,13.20
2018,06,16,01,17,13.10
2018,06,16,01,18,13.10
2018,06,16,01,19,13.10
2018,06,16,01,20,13.10
2018,06,16,01,21,13.10
2018,06,16,01,22,13.00
2018,06,16,01,23,13.00
2018,06,16,01,24,13.00
2018,06,16,01,25,13.00
2018,06,16,01,26,13.00
2018,06,16,01,27,13.00
2018,06,16,01,28,12.90
2018,06,16,01,29,12.90
2018,06,16,01,30,12.90
2018,06,16,01,31,12.90
2018,06,16,01,32,12.90
2018,06,16,01,33,12.90
2018,06,16,01,34,12.90
2018,06,16,01,35,12.80
2018,06,16,01,36,12.80
2018,06,16,01,37,12.80
2018,06,16,01,38,12.80
2018,06,16,01,39,12.70
2018,06,16,01,40,12.70
2018,06,16,01,41,12.70
2018,06,16,01,42,12.70
2018,06,16,01,43,12.70
2018,06,16,01,44,12.70
2018,06,16,01,45,12.70
2018,06,16,01,46,12.70
2018,06,16,01,47,12.70
2018,06,16,01,48,12.70
2018,06,16,01,49,12.70
2018,06,16,01,50,12.60
2018,06,16,01,51,12.60
2018,06,16,01,52,12.60
2018,06,16,01,53,12.60
2018,06,16,01,54,12.60
2018,06,16,01,55,12.60
2018,06,16,01,56,12.50
2018,06,16,01,57,12.50
2018,06,16,01,58,12.50
2018,06,16,01,59,12.50
2018,06,16,02,00,12.50
2018,06,16,02,01,12.40
2018,06,16,02,02,12.40
2018,06,16,02,03,12.40
2018,06,16,02,04,12.40
2018,06,16,02,05,12.30
2018,06,16,02,06,12.30
2018,06,16,02,07,12.30
2018,06,16,02,08,12.30
2018,06,16,02,09,12.30
2018,06,16,02,10,12.30
2018,06,16,02,11,12.30
2018,06,16,02,12,12.30
2018,06,16,02,13,12.30
2018,06,16,02,14,12.30
2018,06,16,02,15,12.30
2018,06,16,02,16,12.30
2018,06,16,02,17,12.30
2018,06,16,02,18,12.30
2018,06,16,02,19,12.20
2018,06,16,02,20,12.20
2018,06,16,02,21,12.20
2018,06,16,02,22,12.20
2018,06,16,02,23,12.10
2018,06,16,02,24,12.10
2018,06,16,02,25,12.10
2018,06,16,02,26,12.10
2018,06,16,02,27,12.10
2018,06,16,02,28,12.10
2018,06,16,02,29,12.10
2018,06,16,02,30,12.10
2018,06,16,02,31,12.10
2018,06,16,02,32,12.00
2018,06,16,02,33,12.00
2018,06,16,02,34,12.00
2018,06,16,02,35,12.00
2018,06,16,02,36,11.90
2018,06,16,02,37,11.90
2018,06,16,02,38,11.90
2018,06,16,02,39,11.90
2018,06,16,02,40,11.90
2018,06,16,02,41,11.90
2018,06,16,02,42,11.90
2018,06,16,02,43,11.80
2018,06,16,02,44,11.90
2018,06,16,02,45,11.90
2018,06,16,02,46,11.90
2018,06,16,02,47,11.80
2018,06,16,02,48,11.80
2018,06,16,02,49,11.80
2018,06,16,02,50,11.80
2018,06,16,02,51,11.70
2018,06,16,02,52,11.70
2018,06,16,02,53,11.70
2018,06,16,02,54,11.70
2018,06,16,02,55,11.70
2018,06,16,02,56,11.70
2018,06,16,02,57,11.70
2018,06,16,02,58,11.70
2018,06,16,02,59,11.70
2018,06,16,03,00,11.60
2018,06,16,03,01,11.60
2018,06,16,03,02,11.60
2018,06,16,03,03,11.60
2018,06,16,03,04,11.60
2018,06,16,03,05,11.60
2018,06,16,03,06,11.60
2018,06,16,03,07,11.60
2018,06,16,03,08,11.60
2018,06,16,03,09,11.60
2018,06,16,03,10,11.60
2018,06,16,03,11,11.60
2018,06,16,03,12,11.60
2018,06,16,03,13,11.60
2018,06,16,03,14,11.60
2018,06,16,03,15,11.60
2018,06,16,03,16,11.60
2018,06,16,03,17,11.60
2018,06,16,03,18,11.60
2018,06,16,03,19,11.60
2018,06,16,03,20,11.60
2018,06,16,03,21,11.60
2018,06,16,03,22,11.60
2018,06,16,03,23,11.60
2018,06,16,03,24,11.60
2018,06,16,03,25,11.60
2018,06,16,03,26,11.60
2018,06,16,03,27,11.60
2018,06,16,03,28,11.60
2018,06,16,03,29,11.60
2018,06,16,03,30,11.60
2018,06,16,03,31,11.60
2018,06,16,03,32,11.60
2018,06,16,03,33,11.60
2018,06,16,03,34,11.60
2018,06,16,03,35,11.50
2018,06,16,03,36,11.50
2018,06,16,03,37,11.50
2018,06,16,03,38,11.50
2018,06,16,03,39,11.50
2018,06,16,03,40,11.50
2018,06,16,03,41,11.50
2018,06,16,03,42,11.50
2018,06,16,03,43,11.50
2018,06,16,03,44,11.50
2018,06,16,03,45,11.50
2018,06,16,03,46,11.50
2018,06,16,03,47,11.50
2018,06,16,03,48,11.50
2018,06,16,03,49,11.50
2018,06,16,03,50,11.50
2018,06,16,03,51,11.50
2018,06,16,03,52,11.50
2018,06,16,03,53,11.40
2018,06,16,03,54,11.40
2018,06,16,03,55,11.40
2018,06,16,03,56,11.40
2018,06,16,03,57,11.40
2018,06,16,03,58,11.40
2018,06,16,03,59,11.40
2018,06,16,04,00,11.40
2018,06,16,04,01,11.40
2018,06,16,04,02,11.40
2018,06,16,04,03,11.40
2018,06,16,04,04,11.40
2018,06,16,04,05,11.40
2018,06,16,04,06,11.40
2018,06,16,04,07,11.40
2018,06,16,04,08,11.40
2018,06,16,04,09,11.40
2018,06,16,04,10,11.40
2018,06,16,04,11,11.40
2018,06,16,04,12,11.40
2018,06,16,04,13,11.40
2018,06,16,04,14,11.50
2018,06,16,04,15,11.50
2018,06,16,04,16,11.50
2018,06,16,04,17,11.50
2018,06,16,04,18,11.50
2018,06,16,04,19,11.50
2018,06,16,04,20,11.50
2018,06,16,04,21,11.50
2018,06,16,04,22,11.50
2018,06,16,04,23,11.50
2018,06,16,04,24,11.50
2018,06,16,04,25,11.50
2018,06,16,04,26,11.40
2018,06,16,04,27,11.40
2018,06,16,04,28,11.40
2018,06,16,04,29,11.50
2018,06,16,04,30,11.50
2018,06,16,04,31,11.50
2018,06,16,04,32,11.50
2018,06,16,04,33,11.50
2018,06,16,04,34,11.50
2018,06,16,04,35,11.50
2018,06,16,04,36,11.50
2018,06,16,04,37,11.40
2018,06,16,04,38,11.40
2018,06,16,04,39,11.40
2018,06,16,04,40,11.30
2018,06,16,04,41,11.30
2018,06,16,04,42,11.30
2018,06,16,04,43,11.30
2018,06,16,04,44,11.30
2018,06,16,04,45,11.30
2018,06,16,04,46,11.20
2018,06,16,04,47,11.20
2018,06,16,04,48,11.20
2018,06,16,04,49,11.20
2018,06,16,04,50,11.20
2018,06,16,04,51,11.20
2018,06,16,04,52,11.20
2018,06,16,04,53,11.20
2018,06,16,04,54,11.20
2018,06,16,04,55,11.20
2018,06,16,04,56,11.10
2018,06,16,04,57,11.10
2018,06,16,04,58,11.10
2018,06,16,04,59,11.10
2018,06,16,05,00,11.10
2018,06,16,05,01,11.00
2018,06,16,05,02,11.00
2018,06,16,05,03,11.00
2018,06,16,05,04,11.00
2018,06,16,05,05,11.00
2018,06,16,05,06,11.00
2018,06,16,05,07,11.00
2018,06,16,05,08,11.00
2018,06,16,05,09,11.00
2018,06,16,05,10,10.90
2018,06,16,05,11,10.90
2018,06,16,05,12,10.90
2018,06,16,05,13,10.90
2018,06,16,05,14,10.90
2018,06,16,05,15,10.90
2018,06,16,05,16,10.90
2018,06,16,05,17,10.90
2018,06,16,05,18,10.90
2018,06,16,05,19,10.90
2018,06,16,05,20,10.90
2018,06,16,05,21,10.90
2018,06,16,05,22,10.90
2018,06,16,05,23,10.90
2018,06,16,05,24,10.80
2018,06,16,05,25,10.80
2018,06,16,05,26,10.80
2018,06,16,05,27,10.80
2018,06,16,05,28,10.80
2018,06,16,05,29,10.80
2018,06,16,05,30,10.80
2018,06,16,05,31,10.80
2018,06,16,05,32,10.80
2018,06,16,05,33,10.80
2018,06,16,05,34,10.70
2018,06,16,05,35,10.70
2018,06,16,05,36,10.70
2018,06,16,05,37,10.70
2018,06,16,05,38,10.70
2018,06,16,05,39,10.70
2018,06,16,05,40,10.70
2018,06,16,05,41,10.70
2018,06,16,05,42,10.70
2018,06,16,05,43,10.70
2018,06,16,05,44,10.70
2018,06,16,05,45,10.70
2018,06,16,05,46,10.70
2018,06,16,05,47,10.80
2018,06,16,05,48,10.70
2018,06,16,05,49,10.80
2018,06,16,05,50,10.80
2018,06,16,05,51,10.80
2018,06,16,05,52,10.80
2018,06,16,05,53,10.80
2018,06,16,05,54,10.80
2018,06,16,05,55,10.80
2018,06,16,05,56,10.80
2018,06,16,05,57,10.80
2018,06,16,05,58,10.80
2018,06,16,05,59,10.80
2018,06,16,06,00,10.80
2018,06,16,06,01,10.80
2018,06,16,06,02,10.80
2018,06,16,06,03,10.80
2018,06,16,06,04,10.80
2018,06,16,06,05,10.80
2018,06,16,06,06,10.80
2018,06,16,06,07,10.80
2018,06,16,06,08,10.80
2018,06,16,06,09,10.80
2018,06,16,06,10,10.80
2018,06,16,06,11,10.80
2018,06,16,06,12,10.80
2018,06,16,06,13,10.80
2018,06,16,06,14,10.80
2018,06,16,06,15,10.80
2018,06,16,06,16,10.80
2018,06,16,06,17,10.90
2018,06,16,06,18,10.90
2018,06,16,06,19,10.90
2018,06,16,06,20,10.90
2018,06,16,06,21,11.00
2018,06,16,06,22,11.00
2018,06,16,06,23,11.00
2018,06,16,06,24,11.00
2018,06,16,06,25,11.10
2018,06,16,06,26,11.10
2018,06,16,06,27,11.00
2018,06,16,06,28,11.00
2018,06,16,06,29,11.10
2018,06,16,06,30,11.10
2018,06,16,06,31,11.10
2018,06,16,06,32,11.10
2018,06,16,06,33,11.10
2018,06,16,06,34,11.10
2018,06,16,06,35,11.10
2018,06,16,06,36,11.20
2018,06,16,06,37,11.20
2018,06,16,06,38,11.30
2018,06,16,06,39,11.30
2018,06,16,06,40,11.30
2018,06,16,06,41,11.40
2018,06,16,06,42,11.50
2018,06,16,06,43,11.50
2018,06,16,06,44,11.60
2018,06,16,06,45,11.60
2018,06,16,06,46,11.60
2018,06,16,06,47,11.70
2018,06,16,06,48,11.70
2018,06,16,06,49,11.80
2018,06,16,06,50,11.80
2018,06,16,06,51,11.90
2018,06,16,06,52,11.90
2018,06,16,06,53,12.00
2018,06,16,06,54,12.10
2018,06,16,06,55,12.10
2018,06,16,06,56,12.20
2018,06,16,06,57,12.30
2018,06,16,06,58,12.30
2018,06,16,06,59,12.40
2018,06,16,07,00,12.40
2018,06,16,07,01,12.50
2018,06,16,07,02,12.50
2018,06,16,07,03,12.60
2018,06,16,07,04,12.70
2018,06,16,07,05,12.80
2018,06,16,07,06,12.80
2018,06,16,07,07,12.90
2018,06,16,07,08,13.00
2018,06,16,07,09,13.00
2018,06,16,07,10,13.10
2018,06,16,07,11,13.20
2018,06,16,07,12,13.20
2018,06,16,07,13,13.20
2018,06,16,07,14,13.30
2018,06,16,07,15,13.40
2018,06,16,07,16,13.40
2018,06,16,07,17,13.50
2018,06,16,07,18,13.60
2018,06,16,07,19,13.60
2018,06,16,07,20,13.70
2018,06,16,07,21,13.80
2018,06,16,07,22,13.80
2018,06,16,07,23,13.90
2018,06,16,07,24,13.90
2018,06,16,07,25,14.00
2018,06,16,07,26,14.00
2018,06,16,07,27,14.10
2018,06,16,07,28,14.10
2018,06,16,07,29,14.20
2018,06,16,07,30,14.30
2018,06,16,07,31,14.30
2018,06,16,07,32,14.30
2018,06,16,07,33,14.40
2018,06,16,07,34,14.50
2018,06,16,07,35,14.50
2018,06,16,07,36,14.60
2018,06,16,07,37,14.60
2018,06,16,07,38,14.60
2018,06,16,07,39,14.60
2018,06,16,07,40,14.60
2018,06,16,07,41,14.60
2018,06,16,07,42,14.60
2018,06,16,07,43,14.60
2018,06,16,07,44,14.60
2018,06,16,07,45,14.60
2018,06,16,07,46,14.60
2018,06,16,07,47,14.70
2018,06,16,07,48,14.80
2018,06,16,07,49,14.80
2018,06,16,07,50,14.80
2018,06,16,07,51,14.80
2018,06,16,07,52,14.80
2018,06,16,07,53,14.80
2018,06,16,07,54,14.80
2018,06,16,07,55,14.80
2018,06,16,07,56,14.80
2018,06,16,07,57,14.80
2018,06,16,07,58,14.90
2018,06,16,07,59,15.00
2018,06,16,08,00,15.00
2018,06,16,08,01,15.10
2018,06,16,08,02,15.10
2018,06,16,08,03,15.10
2018,06,16,08,04,15.10
2018,06,16,08,05,15.20
2018,06,16,08,06,15.20
2018,06,16,08,07,15.30
2018,06,16,08,08,15.40
2018,06,16,08,09,15.40
2018,06,16,08,10,15.40
2018,06,16,08,11,15.40
2018,06,16,08,12,15.40
2018,06,16,08,13,15.40
2018,06,16,08,14,15.40
2018,06,16,08,15,15.40
2018,06,16,08,16,15.40
2018,06,16,08,17,15.40
2018,06,16,08,18,15.40
2018,06,16,08,19,15.40
2018,06,16,08,20,15.40
2018,06,16,08,21,15.50
2018,06,16,08,22,15.50
2018,06,16,08,23,15.60
2018,06,16,08,24,15.60
2018,06,16,08,25,15.70
2018,06,16,08,26,15.70
2018,06,16,08,27,15.70
2018,06,16,08,28,15.80
2018,06,16,08,29,15.80
2018,06,16,08,30,15.80
2018,06,16,08,31,15.80
2018,06,16,08,32,15.80
2018,06,16,08,33,15.80
2018,06,16,08,34,15.80
2018,06,16,08,35,15.80
2018,06,16,08,36,15.80
2018,06,16,08,37,15.70
2018,06,16,08,38,15.70
2018,06,16,08,39,15.60
2018,06,16,08,40,15.60
2018,06,16,08,41,15.50
2018,06,16,08,42,15.40
2018,06,16,08,43,15.30
2018,06,16,08,44,15.20
2018,06,16,08,45,15.20
2018,06,16,08,46,15.20
2018,06,16,08,47,15.10
2018,06,16,08,48,15.10
2018,06,16,08,49,15.00
2018,06,16,08,50,15.00
2018,06,16,08,51,15.00
2018,06,16,08,52,15.00
2018,06,16,08,53,15.00
2018,06,16,08,54,14.90
2018,06,16,08,55,14.90
2018,06,16,08,56,14.90
2018,06,16,08,57,14.90
2018,06,16,08,58,14.90
2018,06,16,08,59,15.00
2018,06,16,09,00,15.00
2018,06,16,09,01,15.00
2018,06,16,09,02,15.10
2018,06,16,09,03,15.20
2018,06,16,09,04,15.30
2018,06,16,09,05,15.30
2018,06,16,09,06,15.30
2018,06,16,09,07,15.30
2018,06,16,09,08,15.30
2018,06,16,09,09,15.30
2018,06,16,09,10,15.30
2018,06,16,09,11,15.20
2018,06,16,09,12,15.20
2018,06,16,09,13,15.20
2018,06,16,09,14,15.20
2018,06,16,09,15,15.10
2018,06,16,09,16,15.10
2018,06,16,09,17,15.10
2018,06,16,09,18,15.10
2018,06,16,09,19,15.10
2018,06,16,09,20,15.10
2018,06,16,09,21,15.10
2018,06,16,09,22,15.00
2018,06,16,09,23,15.00
2018,06,16,09,24,15.10
2018,06,16,09,25,15.10
2018,06,16,09,26,15.10
2018,06,16,09,27,15.10
2018,06,16,09,28,15.20
2018,06,16,09,29,15.30
2018,06,16,09,30,15.30
2018,06,16,09,31,15.40
2018,06,16,09,32,15.40
2018,06,16,09,33,15.50
2018,06,16,09,34,15.50
2018,06,16,09,35,15.60
2018,06,16,09,36,15.60
2018,06,16,09,37,15.70
2018,06,16,09,38,15.70
2018,06,16,09,39,15.80
2018,06,16,09,40,15.80
2018,06,16,09,41,15.80
2018,06,16,09,42,15.80
2018,06,16,09,43,15.80
2018,06,16,09,44,15.90
2018,06,16,09,45,15.80
2018,06,16,09,46,15.80
2018,06,16,09,47,15.80
2018,06,16,09,48,15.70
2018,06,16,09,49,15.70
2018,06,16,09,50,15.80
2018,06,16,09,51,15.80
2018,06,16,09,52,15.80
2018,06,16,09,53,15.70
2018,06,16,09,54,15.70
2018,06,16,09,55,15.70
2018,06,16,09,56,15.60
2018,06,16,09,57,15.60
2018,06,16,09,58,15.70
2018,06,16,09,59,15.70
2018,06,16,10,00,15.80
2018,06,16,10,01,15.80
2018,06,16,10,02,15.80
2018,06,16,10,03,15.90
2018,06,16,10,04,15.90
2018,06,16,10,05,15.90
2018,06,16,10,06,16.00
2018,06,16,10,07,16.00
2018,06,16,10,08,16.10
2018,06,16,10,09,16.10
2018,06,16,10,10,16.10
2018,06,16,10,11,16.10
2018,06,16,10,12,16.10
2018,06,16,10,13,16.20
2018,06,16,10,14,16.20
2018,06,16,10,15,16.20
2018,06,16,10,16,16.20
2018,06,16,10,17,16.20
2018,06,16,10,18,16.30
2018,06,16,10,19,16.30
2018,06,16,10,20,16.30
2018,06,16,10,21,16.40
2018,06,16,10,22,16.40
2018,06,16,10,23,16.40
2018,06,16,10,24,16.50
2018,06,16,10,25,16.50
2018,06,16,10,26,16.60
2018,06,16,10,27,16.60
2018,06,16,10,28,16.60
2018,06,16,10,29,16.60
2018,06,16,10,30,16.50
2018,06,16,10,31,16.40
2018,06,16,10,32,16.30
2018,06,16,10,33,16.20
2018,06,16,10,34,16.10
2018,06,16,10,35,16.00
2018,06,16,10,36,15.90
2018,06,16,10,37,15.90
2018,06,16,10,38,15.90
2018,06,16,10,39,15.80
2018,06,16,10,40,15.80
2018,06,16,10,41,15.80
2018,06,16,10,42,15.80
2018,06,16,10,43,15.80
2018,06,16,10,44,15.70
2018,06,16,10,45,15.70
2018,06,16,10,46,15.80
2018,06,16,10,47,15.80
2018,06,16,10,48,15.80
2018,06,16,10,49,15.90
2018,06,16,10,50,15.90
2018,06,16,10,51,15.90
2018,06,16,10,52,15.90
2018,06,16,10,53,15.90
2018,06,16,10,54,15.90
2018,06,16,10,55,16.00
2018,06,16,10,56,16.00
2018,06,16,10,57,16.10
2018,06,16,10,58,16.20
2018,06,16,10,59,16.20
2018,06,16,11,00,16.20
2018,06,16,11,01,16.30
2018,06,16,11,02,16.30
2018,06,16,11,03,16.40
2018,06,16,11,04,16.50
2018,06,16,11,05,16.50
2018,06,16,11,06,16.60
2018,06,16,11,07,16.60
2018,06,16,11,08,16.70
2018,06,16,11,09,16.60
2018,06,16,11,10,16.60
2018,06,16,11,11,16.50
2018,06,16,11,12,16.50
2018,06,16,11,13,16.50
2018,06,16,11,14,16.40
2018,06,16,11,15,16.30
2018,06,16,11,16,16.30
2018,06,16,11,17,16.30
2018,06,16,11,18,16.30
2018,06,16,11,19,16.30
2018,06,16,11,20,16.40
2018,06,16,11,21,16.40
2018,06,16,11,22,16.40
2018,06,16,11,23,16.50
2018,06,16,11,24,16.60
2018,06,16,11,25,16.70
2018,06,16,11,26,16.80
2018,06,16,11,27,16.80
2018,06,16,11,28,16.80
2018,06,16,11,29,16.80
2018,06,16,11,30,16.80
2018,06,16,11,31,16.80
2018,06,16,11,32,16.90
2018,06,16,11,33,16.90
2018,06,16,11,34,16.90
2018,06,16,11,35,17.00
2018,06,16,11,36,17.00
2018,06,16,11,37,17.00
2018,06,16,11,38,17.10
2018,06,16,11,39,17.20
2018,06,16,11,40,17.30
2018,06,16,11,41,17.40
2018,06,16,11,42,17.60
2018,06,16,11,43,17.80
2018,06,16,11,44,18.00
2018,06,16,11,45,18.20
2018,06,16,11,46,18.40
2018,06,16,11,47,18.50
2018,06,16,11,48,18.60
2018,06,16,11,49,18.60
2018,06,16,11,50,18.60
2018,06,16,11,51,18.60
2018,06,16,11,52,18.70
2018,06,16,11,53,18.70
2018,06,16,11,54,18.70
2018,06,16,11,55,18.70
2018,06,16,11,56,18.80
2018,06,16,11,57,18.80
2018,06,16,11,58,18.80
2018,06,16,11,59,18.80
2018,06,16,12,00,18.90
2018,06,16,12,01,19.00
2018,06,16,12,02,19.10
2018,06,16,12,03,19.00
2018,06,16,12,04,18.90
2018,06,16,12,05,18.60
2018,06,16,12,06,18.40
2018,06,16,12,07,18.30
2018,06,16,12,08,18.20
2018,06,16,12,09,18.10
2018,06,16,12,10,18.00
2018,06,16,12,11,18.00
2018,06,16,12,12,18.00
2018,06,16,12,13,18.00
2018,06,16,12,14,17.90
2018,06,16,12,15,17.90
2018,06,16,12,16,17.90
2018,06,16,12,17,17.90
2018,06,16,12,18,18.00
2018,06,16,12,19,18.10
2018,06,16,12,20,18.20
2018,06,16,12,21,18.30
2018,06,16,12,22,18.50
2018,06,16,12,23,18.60
2018,06,16,12,24,18.80
2018,06,16,12,25,19.00
2018,06,16,12,26,19.10
2018,06,16,12,27,19.30
2018,06,16,12,28,19.30
2018,06,16,12,29,19.20
2018,06,16,12,30,19.00
2018,06,16,12,31,18.80
2018,06,16,12,32,18.70
2018,06,16,12,33,18.70
2018,06,16,12,34,18.80
2018,06,16,12,35,18.90
2018,06,16,12,36,18.90
2018,06,16,12,37,18.90
2018,06,16,12,38,18.90
2018,06,16,12,39,19.00
2018,06,16,12,40,19.00
2018,06,16,12,41,19.10
2018,06,16,12,42,19.30
2018,06,16,12,43,19.50
2018,06,16,12,44,19.70
2018,06,16,12,45,19.80
2018,06,16,12,46,19.70
2018,06,16,12,47,19.60
2018,06,16,12,48,19.40
2018,06,16,12,49,19.20
2018,06,16,12,50,19.10
2018,06,16,12,51,19.00
2018,06,16,12,52,18.90
2018,06,16,12,53,18.70
2018,06,16,12,54,18.60
2018,06,16,12,55,18.40
2018,06,16,12,56,18.30
2018,06,16,12,57,18.20
2018,06,16,12,58,18.10
2018,06,16,12,59,18.10
2018,06,16,13,00,18.10
2018,06,16,13,01,18.20
2018,06,16,13,02,18.30
2018,06,16,13,03,18.30
2018,06,16,13,04,18.40
2018,06,16,13,05,18.50
2018,06,16,13,06,18.60
2018,06,16,13,07,18.60
2018,06,16,13,08,18.70
2018,06,16,13,09,18.80
2018,06,16,13,10,18.90
2018,06,16,13,11,19.00
2018,06,16,13,12,19.00
2018,06,16,13,13,19.10
2018,06,16,13,14,19.10
2018,06,16,13,15,19.10
2018,06,16,13,16,19.10
2018,06,16,13,17,19.10
2018,06,16,13,18,19.00
2018,06,16,13,19,18.90
2018,06,16,13,20,18.90
2018,06,16,13,21,18.80
2018,06,16,13,22,18.90
2018,06,16,13,23,18.90
2018,06,16,13,24,18.80
2018,06,16,13,25,18.70
2018,06,16,13,26,18.50
2018,06,16,13,27,18.30
2018,06,16,13,28,18.10
2018,06,16,13,29,18.00
2018,06,16,13,30,17.90
2018,06,16,13,31,17.90
2018,06,16,13,32,17.90
2018,06,16,13,33,18.00
2018,06,16,13,34,18.10
2018,06,16,13,35,18.20
2018,06,16,13,36,18.40
2018,06,16,13,37,18.50
2018,06,16,13,38,18.60
2018,06,16,13,39,18.60
2018,06,16,13,40,18.60
2018,06,16,13,41,18.70
2018,06,16,13,42,18.80
2018,06,16,13,43,18.90
2018,06,16,13,44,19.00
2018,06,16,13,45,19.20
2018,06,16,13,46,19.30
2018,06,16,13,47,19.30
2018,06,16,13,48,19.30
2018,06,16,13,49,19.30
2018,06,16,13,50,19.30
2018,06,16,13,51,19.30
2018,06,16,13,52,19.30
2018,06,16,13,53,19.20
2018,06,16,13,54,19.20
2018,06,16,13,55,19.20
2018,06,16,13,56,19.30
2018,06,16,13,57,19.40
2018,06,16,13,58,19.60
2018,06,16,13,59,19.80
2018,06,16,14,00,20.00
2018,06,16,14,01,20.20
2018,06,16,14,02,20.30
2018,06,16,14,03,20.50
2018,06,16,14,04,20.60
2018,06,16,14,05,20.80
2018,06,16,14,06,21.00
2018,06,16,14,07,21.20
2018,06,16,14,08,21.30
2018,06,16,14,09,21.40
2018,06,16,14,10,21.40
2018,06,16,14,11,21.40
2018,06,16,14,12,21.40
2018,06,16,14,13,21.40
2018,06,16,14,14,21.40
2018,06,16,14,15,21.50
2018,06,16,14,16,21.70
2018,06,16,14,17,21.90
2018,06,16,14,18,22.00
2018,06,16,14,19,22.10
2018,06,16,14,20,22.20
2018,06,16,14,21,22.30
2018,06,16,14,22,22.30
2018,06,16,14,23,22.40
2018,06,16,14,24,22.30
2018,06,16,14,25,22.30
2018,06,16,14,26,22.30
2018,06,16,14,27,22.30
2018,06,16,14,28,22.30
2018,06,16,14,29,22.30
2018,06,16,14,30,22.30
2018,06,16,14,31,22.30
2018,06,16,14,32,22.20
2018,06,16,14,33,22.20
2018,06,16,14,34,22.10
2018,06,16,14,35,22.10
2018,06,16,14,36,22.20
2018,06,16,14,37,22.20
2018,06,16,14,38,22.20
2018,06,16,14,39,22.20
2018,06,16,14,40,22.20
2018,06,16,14,41,22.20
2018,06,16,14,42,22.20
2018,06,16,14,43,22.20
2018,06,16,14,44,22.20
2018,06,16,14,45,22.30
2018,06,16,14,46,22.30
2018,06,16,14,47,22.30
2018,06,16,14,48,22.30
2018,06,16,14,49,22.30
2018,06,16,14,50,22.20
2018,06,16,14,51,22.20
2018,06,16,14,52,22.10
2018,06,16,14,53,22.10
2018,06,16,14,54,22.20
2018,06,16,14,55,22.10
2018,06,16,14,56,22.10
2018,06,16,14,57,22.00
2018,06,16,14,58,21.90
2018,06,16,14,59,21.90
2018,06,16,15,00,22.00
2018,06,16,15,01,22.00
2018,06,16,15,02,21.90
2018,06,16,15,03,21.80
2018,06,16,15,04,21.80
2018,06,16,15,05,21.80
2018,06,16,15,06,21.90
2018,06,16,15,07,21.90
2018,06,16,15,08,21.90
2018,06,16,15,09,22.00
2018,06,16,15,10,22.10
2018,06,16,15,11,22.10
2018,06,16,15,12,22.20
2018,06,16,15,13,22.10
2018,06,16,15,14,22.10
2018,06,16,15,15,22.10
2018,06,16,15,16,22.20
2018,06,16,15,17,22.30
2018,06,16,15,18,22.40
2018,06,16,15,19,22.40
2018,06,16,15,20,22.50
2018,06,16,15,21,22.60
2018,06,16,15,22,22.70
2018,06,16,15,23,22.80
2018,06,16,15,24,22.80
2018,06,16,15,25,22.80
2018,06,16,15,26,22.90
2018,06,16,15,27,22.80
2018,06,16,15,28,22.70
2018,06,16,15,29,22.50
2018,06,16,15,30,22.50
2018,06,16,15,31,22.40
2018,06,16,15,32,22.30
2018,06,16,15,33,22.30
2018,06,16,15,34,22.30
2018,06,16,15,35,22.30
2018,06,16,15,36,22.20
2018,06,16,15,37,22.20
2018,06,16,15,38,22.20
2018,06,16,15,39,22.20
2018,06,16,15,40,22.10
2018,06,16,15,41,22.10
2018,06,16,15,42,21.90
2018,06,16,15,43,21.90
2018,06,16,15,44,21.90
2018,06,16,15,45,21.90
2018,06,16,15,46,21.90
2018,06,16,15,47,21.90
2018,06,16,15,48,21.90
2018,06,16,15,49,22.00
2018,06,16,15,50,22.10
2018,06,16,15,51,22.20
2018,06,16,15,52,22.20
2018,06,16,15,53,22.20
2018,06,16,15,54,22.20
2018,06,16,15,55,22.20
2018,06,16,15,56,22.20
2018,06,16,15,57,22.20
2018,06,16,15,58,22.20
2018,06,16,15,59,22.10
2018,06,16,16,00,22.10
2018,06,16,16,01,22.00
2018,06,16,16,02,22.00
2018,06,16,16,03,21.90
2018,06,16,16,04,21.90
2018,06,16,16,05,21.90
2018,06,16,16,06,21.90
2018,06,16,16,07,21.90
2018,06,16,16,08,21.90
2018,06,16,16,09,21.90
2018,06,16,16,10,21.90
2018,06,16,16,11,21.80
2018,06,16,16,12,21.70
2018,06,16,16,13,21.60
2018,06,16,16,14,21.50
2018,06,16,16,15,21.40
2018,06,16,16,16,21.30
2018,06,16,16,17,21.30
2018,06,16,16,18,21.30
2018,06,16,16,19,21.30
2018,06,16,16,20,21.40
2018,06,16,16,21,21.50
2018,06,16,16,22,21.60
2018,06,16,16,23,21.70
2018,06,16,16,24,21.70
2018,06,16,16,25,21.70
2018,06,16,16,26,21.80
2018,06,16,16,27,21.80
2018,06,16,16,28,21.90
2018,06,16,16,29,22.00
2018,06,16,16,30,22.00
2018,06,16,16,31,22.10
2018,06,16,16,32,22.20
2018,06,16,16,33,22.20
2018,06,16,16,34,22.30
2018,06,16,16,35,22.40
2018,06,16,16,36,22.40
2018,06,16,16,37,22.50
2018,06,16,16,38,22.60
2018,06,16,16,39,22.70
2018,06,16,16,40,22.70
2018,06,16,16,41,22.60
2018,06,16,16,42,22.60
2018,06,16,16,43,22.60
2018,06,16,16,44,22.50
2018,06,16,16,45,22.40
2018,06,16,16,46,22.30
2018,06,16,16,47,22.30
2018,06,16,16,48,22.30
2018,06,16,16,49,22.30
2018,06,16,16,50,22.40
2018,06,16,16,51,22.40
2018,06,16,16,52,22.50
2018,06,16,16,53,22.60
2018,06,16,16,54,22.60
2018,06,16,16,55,22.70
2018,06,16,16,56,22.70
2018,06,16,16,57,22.70
2018,06,16,16,58,22.80
2018,06,16,16,59,22.80
2018,06,16,17,00,22.80
2018,06,16,17,01,22.80
2018,06,16,17,02,22.80
2018,06,16,17,03,22.80
2018,06,16,17,04,22.80
2018,06,16,17,05,22.80
2018,06,16,17,06,22.80
2018,06,16,17,07,22.80
2018,06,16,17,08,22.80
2018,06,16,17,09,22.70
2018,06,16,17,10,22.60
2018,06,16,17,11,22.60
2018,06,16,17,12,22.60
2018,06,16,17,13,22.60
2018,06,16,17,14,22.50
2018,06,16,17,15,22.40
2018,06,16,17,16,22.30
2018,06,16,17,17,22.30
2018,06,16,17,18,22.40
2018,06,16,17,19,22.30